Location: Byhalia Creek
(34.8270°N, 89.8040°W)
Time: 09:00:05
(UTC+00:00)

Cosmos 1400 Rocket - Pass Details

Date: 22 April 2026
Orbit: 474 x 505 km, 81.1° (Epoch: 15 May)

Event Time Altitude Azimuth Distance (km) Brightness Sun altitude
Rises 00:56:02 0° 153° (SSE) 2,506 5.8 -4.7°
Reaches altitude 10° 00:58:38 10° 132° (SE) 1,634 4.7 -5.2°
Maximum altitude 01:01:00 17° 90° (E) 1,270 4.1 -5.6°
Drops below altitude 10° 01:03:23 10° 49° (NE) 1,645 5.0 -6.1°
Sets 01:06:01 0° 28° (NNE) 2,532 6.1 -6.6°
